Time,TemperatureF,DewpointF,PressureIn,WindDirection,WindDirectionDegrees,WindSpeedMPH,WindSpeedGustMPH,Humidity,HourlyPrecipIn,Conditions,Clouds,dailyrainin,SoftwareType,DateUTC
2013-03-16 00:00:00,42.2,41.1,29.85,SSW,213,2.0,2.0,96,0.04,,,0.00,Wunderground v.1.15,2013-03-16 04:00:00,
2013-03-16 00:05:00,42.1,41.0,29.85,SW,231,1.0,2.0,96,0.04,,,0.00,Wunderground v.1.15,2013-03-16 04:05:00,
2013-03-16 00:09:00,42.1,41.0,29.85,South,187,1.0,2.0,96,0.00,,,0.00,Wunderground v.1.15,2013-03-16 04:09:00,
2013-03-16 00:10:00,42.1,41.0,29.83,SSW,203,2.0,-999.0,96,0.07,,,0.06,Wunderground v.1.15,2013-03-16 04:10:00,
2013-03-16 00:15:00,42.1,41.0,29.84,SW,229,2.0,3.0,96,0.00,,,0.00,Wunderground v.1.15,2013-03-16 04:15:00,
2013-03-16 00:20:00,42.2,41.1,29.84,SW,218,2.0,2.0,96,0.00,,,0.00,Wunderground v.1.15,2013-03-16 04:20:00,
2013-03-16 00:25:00,42.1,41.0,29.84,SW,222,2.0,2.0,96,0.00,,,0.00,Wunderground v.1.15,2013-03-16 04:25:00,
2013-03-16 00:30:00,42.1,41.0,29.83,SSW,203,2.0,-999.0,96,0.02,,,0.06,Wunderground v.1.15,2013-03-16 04:30:00,
2013-03-16 00:35:00,42.2,41.4,29.83,SSW,206,2.0,2.0,97,0.00,,,0.00,Wunderground v.1.15,2013-03-16 04:35:00,
2013-03-16 00:40:00,42.1,41.3,29.83,South,173,2.0,2.0,97,0.00,,,0.00,Wunderground v.1.15,2013-03-16 04:40:00,
2013-03-16 00:45:00,42.2,41.4,29.82,SSW,204,2.0,2.0,97,0.00,,,0.00,Wunderground v.1.15,2013-03-16 04:45:00,
2013-03-16 00:50:00,42.1,41.3,29.83,SW,214,2.0,2.0,97,0.00,,,0.00,Wunderground v.1.15,2013-03-16 04:50:00,
2013-03-16 00:55:00,42.1,41.3,29.82,SSW,210,2.0,2.0,97,0.00,,,0.01,Wunderground v.1.15,2013-03-16 04:55:00,
2013-03-16 01:00:00,42.1,41.3,29.82,SSW,203,2.0,-999.0,97,0.01,,,0.06,Wunderground v.1.15,2013-03-16 05:00:00,
2013-03-16 01:04:00,42.1,41.3,29.82,SE,137,1.0,1.0,97,0.00,,,0.01,Wunderground v.1.15,2013-03-16 05:04:00,
2013-03-16 01:05:00,42.1,41.3,29.82,SSW,203,2.0,-999.0,97,0.01,,,0.06,Wunderground v.1.15,2013-03-16 05:05:00,
2013-03-16 01:10:00,42.1,41.3,29.81,SSE,158,1.0,1.0,97,0.04,,,0.02,Wunderground v.1.15,2013-03-16 05:10:00,
2013-03-16 01:15:00,42.1,41.3,29.80,SSE,158,1.0,-999.0,97,0.03,,,0.06,Wunderground v.1.15,2013-03-16 05:15:00,
2013-03-16 01:20:00,42.1,41.3,29.80,SSE,158,1.0,-999.0,97,0.03,,,0.06,Wunderground v.1.15,2013-03-16 05:20:00,
2013-03-16 01:25:00,42.1,41.3,29.80,SSE,158,1.0,-999.0,97,0.03,,,0.06,Wunderground v.1.15,2013-03-16 05:25:00,
2013-03-16 01:30:00,42.1,41.3,29.80,SSE,158,1.0,-999.0,97,0.03,,,0.06,Wunderground v.1.15,2013-03-16 05:30:00,
2013-03-16 01:35:00,42.1,41.3,29.80,SSE,158,1.0,-999.0,97,0.03,,,0.06,Wunderground v.1.15,2013-03-16 05:35:00,
2013-03-16 01:40:00,42.1,41.3,29.80,SSE,158,1.0,-999.0,97,0.03,,,0.06,Wunderground v.1.15,2013-03-16 05:40:00,
2013-03-16 01:45:00,41.9,41.1,29.78,SE,135,1.0,-999.0,97,0.02,,,0.06,Wunderground v.1.15,2013-03-16 05:45:00,
2013-03-16 01:50:00,41.9,41.1,29.78,SE,135,1.0,-999.0,97,0.02,,,0.06,Wunderground v.1.15,2013-03-16 05:50:00,
2013-03-16 01:55:00,41.9,41.1,29.78,SE,135,1.0,-999.0,97,0.02,,,0.06,Wunderground v.1.15,2013-03-16 05:55:00,
2013-03-16 02:00:00,41.9,41.1,29.78,SE,135,1.0,-999.0,97,0.02,,,0.06,Wunderground v.1.15,2013-03-16 06:00:00,
2013-03-16 02:05:00,41.9,41.1,29.78,SE,135,1.0,-999.0,97,0.02,,,0.06,Wunderground v.1.15,2013-03-16 06:05:00,
2013-03-16 02:10:00,41.9,41.1,29.78,SE,135,1.0,-999.0,97,0.02,,,0.06,Wunderground v.1.15,2013-03-16 06:10:00,
2013-03-16 02:15:00,41.6,40.8,29.75,SE,135,1.0,-999.0,97,0.01,,,0.06,Wunderground v.1.15,2013-03-16 06:15:00,
2013-03-16 02:20:00,41.6,40.8,29.75,SE,135,1.0,-999.0,97,0.01,,,0.06,Wunderground v.1.15,2013-03-16 06:20:00,
2013-03-16 02:25:00,41.6,40.8,29.75,SE,135,1.0,-999.0,97,0.01,,,0.06,Wunderground v.1.15,2013-03-16 06:25:00,
2013-03-16 02:30:00,41.6,40.8,29.75,SE,135,1.0,-999.0,97,0.01,,,0.06,Wunderground v.1.15,2013-03-16 06:30:00,
2013-03-16 02:35:00,41.6,40.8,29.75,SE,135,1.0,-999.0,97,0.01,,,0.06,Wunderground v.1.15,2013-03-16 06:35:00,
2013-03-16 02:40:00,41.6,40.8,29.75,SE,135,1.0,-999.0,97,0.01,,,0.06,Wunderground v.1.15,2013-03-16 06:40:00,
2013-03-16 02:45:00,41.5,40.7,29.73,East,90,1.0,-999.0,97,0.01,,,0.06,Wunderground v.1.15,2013-03-16 06:45:00,
2013-03-16 02:50:00,41.5,40.7,29.73,East,90,1.0,-999.0,97,0.01,,,0.06,Wunderground v.1.15,2013-03-16 06:50:00,
2013-03-16 02:55:00,41.5,40.7,29.73,East,90,1.0,-999.0,97,0.01,,,0.06,Wunderground v.1.15,2013-03-16 06:55:00,
2013-03-16 03:00:00,41.5,40.7,29.73,East,90,1.0,-999.0,97,0.01,,,0.06,Wunderground v.1.15,2013-03-16 07:00:00,
2013-03-16 03:05:00,41.5,40.7,29.73,East,90,1.0,-999.0,97,0.01,,,0.06,Wunderground v.1.15,2013-03-16 07:05:00,
2013-03-16 03:10:00,41.5,40.7,29.73,East,90,1.0,-999.0,97,0.01,,,0.06,Wunderground v.1.15,2013-03-16 07:10:00,
2013-03-16 03:15:00,41.5,41.0,29.71,East,90,0.0,-999.0,98,0.00,,,0.06,Wunderground v.1.15,2013-03-16 07:15:00,
2013-03-16 03:20:00,41.5,41.0,29.71,East,90,0.0,-999.0,98,0.00,,,0.06,Wunderground v.1.15,2013-03-16 07:20:00,
2013-03-16 03:25:00,41.5,41.0,29.71,East,90,0.0,-999.0,98,0.00,,,0.06,Wunderground v.1.15,2013-03-16 07:25:00,
2013-03-16 03:30:00,41.5,41.0,29.71,East,90,0.0,-999.0,98,0.00,,,0.06,Wunderground v.1.15,2013-03-16 07:30:00,
2013-03-16 03:35:00,41.5,41.0,29.71,East,90,0.0,-999.0,98,0.00,,,0.06,Wunderground v.1.15,2013-03-16 07:35:00,
2013-03-16 03:40:00,41.5,41.0,29.71,East,90,0.0,-999.0,98,0.00,,,0.06,Wunderground v.1.15,2013-03-16 07:40:00,
2013-03-16 03:45:00,41.6,41.1,29.71,SE,135,1.0,-999.0,98,0.00,,,0.06,Wunderground v.1.15,2013-03-16 07:45:00,
2013-03-16 03:50:00,41.6,41.1,29.71,SE,135,1.0,-999.0,98,0.00,,,0.06,Wunderground v.1.15,2013-03-16 07:50:00,
2013-03-16 03:55:00,41.6,41.1,29.71,SE,135,1.0,-999.0,98,0.00,,,0.06,Wunderground v.1.15,2013-03-16 07:55:00,
2013-03-16 04:00:00,41.6,41.1,29.71,SE,135,1.0,-999.0,98,0.00,,,0.06,Wunderground v.1.15,2013-03-16 08:00:00,
2013-03-16 04:05:00,41.6,41.1,29.71,SE,135,1.0,-999.0,98,0.00,,,0.06,Wunderground v.1.15,2013-03-16 08:05:00,
2013-03-16 04:10:00,41.6,41.1,29.71,SE,135,1.0,-999.0,98,0.00,,,0.06,Wunderground v.1.15,2013-03-16 08:10:00,
2013-03-16 04:15:00,41.6,41.1,29.69,ESE,113,1.0,-999.0,98,0.02,,,0.06,Wunderground v.1.15,2013-03-16 08:15:00,
2013-03-16 04:20:00,41.6,41.1,29.69,ESE,113,1.0,-999.0,98,0.02,,,0.06,Wunderground v.1.15,2013-03-16 08:20:00,
2013-03-16 04:25:00,41.6,41.1,29.69,ESE,113,1.0,-999.0,98,0.02,,,0.06,Wunderground v.1.15,2013-03-16 08:25:00,
2013-03-16 04:30:00,41.6,41.1,29.69,ESE,113,1.0,-999.0,98,0.02,,,0.06,Wunderground v.1.15,2013-03-16 08:30:00,
2013-03-16 04:35:00,41.6,41.1,29.69,ESE,113,1.0,-999.0,98,0.02,,,0.06,Wunderground v.1.15,2013-03-16 08:35:00,
2013-03-16 04:40:00,41.6,41.1,29.69,ESE,113,1.0,-999.0,98,0.02,,,0.06,Wunderground v.1.15,2013-03-16 08:40:00,
2013-03-16 04:45:00,41.7,41.2,29.68,SE,135,1.0,-999.0,98,0.02,,,0.06,Wunderground v.1.15,2013-03-16 08:45:00,
2013-03-16 04:50:00,41.7,41.2,29.68,SE,135,1.0,-999.0,98,0.02,,,0.06,Wunderground v.1.15,2013-03-16 08:50:00,
2013-03-16 04:55:00,41.7,41.2,29.68,SE,135,1.0,-999.0,98,0.02,,,0.06,Wunderground v.1.15,2013-03-16 08:55:00,
2013-03-16 05:00:00,41.7,41.2,29.68,SE,135,1.0,-999.0,98,0.02,,,0.06,Wunderground v.1.15,2013-03-16 09:00:00,
2013-03-16 05:05:00,41.7,41.2,29.68,SE,135,1.0,-999.0,98,0.02,,,0.06,Wunderground v.1.15,2013-03-16 09:05:00,
2013-03-16 05:10:00,41.7,41.2,29.68,SE,135,1.0,-999.0,98,0.02,,,0.06,Wunderground v.1.15,2013-03-16 09:10:00,
2013-03-16 05:15:00,41.8,41.3,29.68,East,90,0.0,-999.0,98,0.00,,,0.06,Wunderground v.1.15,2013-03-16 09:15:00,
2013-03-16 05:20:00,41.8,41.3,29.68,East,90,0.0,-999.0,98,0.00,,,0.06,Wunderground v.1.15,2013-03-16 09:20:00,
2013-03-16 05:25:00,41.8,41.3,29.68,East,90,0.0,-999.0,98,0.00,,,0.06,Wunderground v.1.15,2013-03-16 09:25:00,
2013-03-16 05:30:00,41.8,41.3,29.68,East,90,0.0,-999.0,98,0.00,,,0.06,Wunderground v.1.15,2013-03-16 09:30:00,
2013-03-16 05:35:00,41.8,41.3,29.68,East,90,0.0,-999.0,98,0.00,,,0.06,Wunderground v.1.15,2013-03-16 09:35:00,
2013-03-16 05:40:00,41.8,41.3,29.68,East,90,0.0,-999.0,98,0.00,,,0.06,Wunderground v.1.15,2013-03-16 09:40:00,
2013-03-16 05:45:00,41.7,41.2,29.68,SE,135,0.0,-999.0,98,0.00,,,0.06,Wunderground v.1.15,2013-03-16 09:45:00,
2013-03-16 05:50:00,41.7,41.2,29.68,SE,135,0.0,-999.0,98,0.00,,,0.06,Wunderground v.1.15,2013-03-16 09:50:00,
2013-03-16 05:55:00,41.7,41.2,29.68,SE,135,0.0,-999.0,98,0.00,,,0.06,Wunderground v.1.15,2013-03-16 09:55:00,
2013-03-16 06:00:00,41.7,41.2,29.68,SE,135,0.0,-999.0,98,0.00,,,0.06,Wunderground v.1.15,2013-03-16 10:00:00,
2013-03-16 06:05:00,41.7,41.2,29.68,SE,135,0.0,-999.0,98,0.00,,,0.06,Wunderground v.1.15,2013-03-16 10:05:00,
2013-03-16 06:10:00,41.7,41.2,29.68,SE,135,0.0,-999.0,98,0.00,,,0.06,Wunderground v.1.15,2013-03-16 10:10:00,
2013-03-16 06:15:00,41.6,41.1,29.68,ENE,68,0.0,-999.0,98,0.00,,,0.06,Wunderground v.1.15,2013-03-16 10:15:00,
2013-03-16 06:20:00,41.6,41.1,29.68,ENE,68,0.0,-999.0,98,0.00,,,0.06,Wunderground v.1.15,2013-03-16 10:20:00,
2013-03-16 06:25:00,41.6,41.1,29.68,ENE,68,0.0,-999.0,98,0.00,,,0.06,Wunderground v.1.15,2013-03-16 10:25:00,
2013-03-16 06:30:00,41.6,41.1,29.68,ENE,68,0.0,-999.0,98,0.00,,,0.06,Wunderground v.1.15,2013-03-16 10:30:00,
2013-03-16 06:35:00,41.6,41.1,29.68,ENE,68,0.0,-999.0,98,0.00,,,0.06,Wunderground v.1.15,2013-03-16 10:35:00,
2013-03-16 06:40:00,41.6,41.1,29.68,ENE,68,0.0,-999.0,98,0.00,,,0.06,Wunderground v.1.15,2013-03-16 10:40:00,
2013-03-16 06:45:00,41.5,41.0,29.67,N/A,-737280,0.0,-999.0,98,0.00,,,0.06,Wunderground v.1.15,2013-03-16 10:45:00,
2013-03-16 06:50:00,41.5,41.0,29.67,N/A,-737280,0.0,-999.0,98,0.00,,,0.06,Wunderground v.1.15,2013-03-16 10:50:00,
2013-03-16 06:55:00,41.5,41.0,29.67,N/A,-737280,0.0,-999.0,98,0.00,,,0.06,Wunderground v.1.15,2013-03-16 10:55:00,
2013-03-16 07:00:00,41.5,41.0,29.67,N/A,-737280,0.0,-999.0,98,0.00,,,0.06,Wunderground v.1.15,2013-03-16 11:00:00,
2013-03-16 07:05:00,41.5,41.0,29.67,N/A,-737280,0.0,-999.0,98,0.00,,,0.06,Wunderground v.1.15,2013-03-16 11:05:00,
2013-03-16 07:10:00,41.5,41.0,29.67,N/A,-737280,0.0,-999.0,98,0.00,,,0.06,Wunderground v.1.15,2013-03-16 11:10:00,
2013-03-16 07:15:00,41.5,41.0,29.66,N/A,-737280,0.0,-999.0,98,0.00,,,0.06,Wunderground v.1.15,2013-03-16 11:15:00,
2013-03-16 07:20:00,41.5,41.0,29.66,N/A,-737280,0.0,-999.0,98,0.00,,,0.06,Wunderground v.1.15,2013-03-16 11:20:00,
2013-03-16 07:25:00,41.5,41.0,29.66,N/A,-737280,0.0,-999.0,98,0.00,,,0.06,Wunderground v.1.15,2013-03-16 11:25:00,
2013-03-16 07:30:00,41.5,41.0,29.66,N/A,-737280,0.0,-999.0,98,0.00,,,0.06,Wunderground v.1.15,2013-03-16 11:30:00,
2013-03-16 07:35:00,41.5,41.0,29.66,N/A,-737280,0.0,-999.0,98,0.00,,,0.06,Wunderground v.1.15,2013-03-16 11:35:00,
2013-03-16 07:40:00,41.5,41.0,29.66,N/A,-737280,0.0,-999.0,98,0.00,,,0.06,Wunderground v.1.15,2013-03-16 11:40:00,
2013-03-16 07:45:00,41.5,41.0,29.65,N/A,-737280,0.0,-999.0,98,0.00,,,0.06,Wunderground v.1.15,2013-03-16 11:45:00,
2013-03-16 07:50:00,41.5,41.0,29.65,N/A,-737280,0.0,-999.0,98,0.00,,,0.06,Wunderground v.1.15,2013-03-16 11:50:00,
2013-03-16 07:55:00,41.5,41.0,29.65,N/A,-737280,0.0,-999.0,98,0.00,,,0.06,Wunderground v.1.15,2013-03-16 11:55:00,
2013-03-16 08:00:00,41.5,41.0,29.65,N/A,-737280,0.0,-999.0,98,0.00,,,0.06,Wunderground v.1.15,2013-03-16 12:00:00,
2013-03-16 08:05:00,41.5,41.0,29.65,N/A,-737280,0.0,-999.0,98,0.00,,,0.06,Wunderground v.1.15,2013-03-16 12:05:00,
2013-03-16 08:10:00,41.5,41.0,29.65,N/A,-737280,0.0,-999.0,98,0.00,,,0.06,Wunderground v.1.15,2013-03-16 12:10:00,
2013-03-16 08:15:00,42.1,41.6,29.63,SE,135,1.0,-999.0,98,0.00,,,0.06,Wunderground v.1.15,2013-03-16 12:15:00,
2013-03-16 08:20:00,42.1,41.6,29.63,SE,135,1.0,-999.0,98,0.00,,,0.06,Wunderground v.1.15,2013-03-16 12:20:00,
2013-03-16 08:25:00,42.1,41.6,29.63,SE,135,1.0,-999.0,98,0.00,,,0.06,Wunderground v.1.15,2013-03-16 12:25:00,
2013-03-16 08:30:00,42.1,41.6,29.63,SE,135,1.0,-999.0,98,0.00,,,0.06,Wunderground v.1.15,2013-03-16 12:30:00,
2013-03-16 08:35:00,42.1,41.6,29.63,SE,135,1.0,-999.0,98,0.00,,,0.06,Wunderground v.1.15,2013-03-16 12:35:00,
2013-03-16 08:40:00,42.1,41.6,29.63,SE,135,1.0,-999.0,98,0.00,,,0.06,Wunderground v.1.15,2013-03-16 12:40:00,
2013-03-16 08:45:00,42.8,42.3,29.63,SSE,158,2.0,-999.0,98,0.00,,,0.06,Wunderground v.1.15,2013-03-16 12:45:00,
2013-03-16 08:50:00,42.8,42.3,29.63,SSE,158,2.0,-999.0,98,0.00,,,0.06,Wunderground v.1.15,2013-03-16 12:50:00,
2013-03-16 08:55:00,42.8,42.3,29.63,SSE,158,2.0,-999.0,98,0.00,,,0.06,Wunderground v.1.15,2013-03-16 12:55:00,
2013-03-16 09:00:00,42.8,42.3,29.63,SSE,158,2.0,-999.0,98,0.00,,,0.06,Wunderground v.1.15,2013-03-16 13:00:00,
2013-03-16 09:05:00,42.8,42.3,29.63,SSE,158,2.0,-999.0,98,0.00,,,0.06,Wunderground v.1.15,2013-03-16 13:05:00,
2013-03-16 09:10:00,42.8,42.3,29.63,SSE,158,2.0,-999.0,98,0.00,,,0.06,Wunderground v.1.15,2013-03-16 13:10:00,
2013-03-16 09:15:00,44.6,43.8,29.64,ESE,113,1.0,-999.0,97,0.00,,,0.06,Wunderground v.1.15,2013-03-16 13:15:00,
2013-03-16 09:20:00,44.3,43.8,29.64,ESE,111,0.0,4.0,98,0.00,,,0.06,Wunderground v.1.15,2013-03-16 13:20:00,
2013-03-16 09:25:00,44.5,44.0,29.64,SW,230,0.0,4.0,98,0.00,,,0.06,Wunderground v.1.15,2013-03-16 13:25:00,
2013-03-16 09:30:00,44.6,43.8,29.64,ESE,113,1.0,-999.0,97,0.00,,,0.06,Wunderground v.1.15,2013-03-16 13:30:00,
2013-03-16 09:34:00,44.8,44.0,29.64,SSW,198,1.0,5.0,97,0.00,,,0.06,Wunderground v.1.15,2013-03-16 13:34:00,
2013-03-16 09:35:00,44.6,43.8,29.64,ESE,113,1.0,-999.0,97,0.00,,,0.06,Wunderground v.1.15,2013-03-16 13:35:00,
2013-03-16 09:40:00,45.0,43.9,29.63,SSW,197,3.0,3.0,96,0.00,,,0.06,Wunderground v.1.15,2013-03-16 13:40:00,
2013-03-16 09:45:00,45.5,44.4,29.63,SSW,213,3.0,5.0,96,0.00,,,0.06,Wunderground v.1.15,2013-03-16 13:45:00,
2013-03-16 09:50:00,45.9,44.5,29.63,SW,232,3.0,3.0,95,0.00,,,0.06,Wunderground v.1.15,2013-03-16 13:50:00,
2013-03-16 09:55:00,46.1,44.7,29.63,South,191,2.0,3.0,95,0.00,,,0.06,Wunderground v.1.15,2013-03-16 13:55:00,
2013-03-16 10:00:00,46.2,44.6,29.63,SSW,211,2.0,3.0,94,0.00,,,0.06,Wunderground v.1.15,2013-03-16 14:00:00,
2013-03-16 10:05:00,46.2,44.6,29.63,SSW,203,2.0,-999.0,94,0.00,,,0.06,Wunderground v.1.15,2013-03-16 14:05:00,
2013-03-16 10:10:00,46.7,45.1,29.62,SW,223,1.0,1.0,94,0.00,,,0.06,Wunderground v.1.15,2013-03-16 14:10:00,
2013-03-16 10:15:00,47.3,45.7,29.62,SSW,192,0.0,1.0,94,0.00,,,0.06,Wunderground v.1.15,2013-03-16 14:15:00,
2013-03-16 10:20:00,47.7,45.5,29.62,SE,144,1.0,1.0,92,0.00,,,0.06,Wunderground v.1.15,2013-03-16 14:20:00,
2013-03-16 10:25:00,48.6,45.8,29.62,SW,225,1.0,-999.0,90,0.00,,,0.06,Wunderground v.1.15,2013-03-16 14:25:00,
2013-03-16 10:30:00,48.6,45.8,29.62,WNW,296,2.0,2.0,90,0.00,,,0.06,Wunderground v.1.15,2013-03-16 14:30:00,
2013-03-16 10:35:00,48.6,45.8,29.62,SW,225,1.0,-999.0,90,0.00,,,0.06,Wunderground v.1.15,2013-03-16 14:35:00,
2013-03-16 10:40:00,48.4,45.6,29.63,NW,326,2.0,4.0,90,0.00,,,0.06,Wunderground v.1.15,2013-03-16 14:40:00,
2013-03-16 10:45:00,47.9,45.1,29.63,NW,320,3.0,4.0,90,0.00,,,0.06,Wunderground v.1.15,2013-03-16 14:45:00,
2013-03-16 10:50:00,47.6,45.1,29.63,West,281,3.0,3.0,91,0.00,,,0.06,Wunderground v.1.15,2013-03-16 14:50:00,
2013-03-16 10:55:00,47.0,44.5,29.62,WNW,293,3.0,-999.0,91,0.00,,,0.06,Wunderground v.1.15,2013-03-16 14:55:00,
2013-03-16 11:00:00,47.0,44.5,29.63,WNW,292,3.0,3.0,91,0.00,,,0.06,Wunderground v.1.15,2013-03-16 15:00:00,
2013-03-16 11:05:00,47.0,44.5,29.62,WNW,293,3.0,-999.0,91,0.00,,,0.06,Wunderground v.1.15,2013-03-16 15:05:00,
2013-03-16 11:10:00,47.1,44.6,29.63,WNW,288,1.0,1.0,91,0.00,,,0.06,Wunderground v.1.15,2013-03-16 15:10:00,
2013-03-16 11:15:00,47.3,44.8,29.63,NNE,22,1.0,2.0,91,0.00,,,0.06,Wunderground v.1.15,2013-03-16 15:15:00,
2013-03-16 11:20:00,47.4,44.9,29.63,SE,126,1.0,1.0,91,0.00,,,0.06,Wunderground v.1.15,2013-03-16 15:20:00,
2013-03-16 11:25:00,47.7,44.9,29.63,WNW,293,1.0,-999.0,90,0.00,,,0.06,Wunderground v.1.15,2013-03-16 15:25:00,
2013-03-16 11:30:00,47.7,44.9,29.63,WNW,293,1.0,-999.0,90,0.00,,,0.06,Wunderground v.1.15,2013-03-16 15:30:00,
2013-03-16 11:35:00,47.7,44.9,29.63,WNW,293,1.0,-999.0,90,0.00,,,0.06,Wunderground v.1.15,2013-03-16 15:35:00,
2013-03-16 11:40:00,47.7,44.9,29.63,WNW,293,1.0,-999.0,90,0.00,,,0.06,Wunderground v.1.15,2013-03-16 15:40:00,
2013-03-16 11:45:00,48.0,45.2,29.64,SW,225,3.0,-999.0,90,0.00,,,0.06,Wunderground v.1.15,2013-03-16 15:45:00,
2013-03-16 11:50:00,48.0,45.2,29.64,SW,225,3.0,-999.0,90,0.00,,,0.06,Wunderground v.1.15,2013-03-16 15:50:00,
2013-03-16 11:55:00,48.0,45.2,29.64,SW,225,3.0,-999.0,90,0.00,,,0.06,Wunderground v.1.15,2013-03-16 15:55:00,
2013-03-16 12:00:00,48.0,45.2,29.64,SW,225,3.0,-999.0,90,0.00,,,0.06,Wunderground v.1.15,2013-03-16 16:00:00,
2013-03-16 12:05:00,48.0,45.2,29.64,SW,225,3.0,-999.0,90,0.00,,,0.06,Wunderground v.1.15,2013-03-16 16:05:00,
2013-03-16 12:09:00,48.0,45.2,29.64,SW,225,3.0,-999.0,90,0.00,,,0.06,Wunderground v.1.15,2013-03-16 16:09:00,
2013-03-16 12:10:00,48.0,45.2,29.64,SW,225,3.0,-999.0,90,0.00,,,0.06,Wunderground v.1.15,2013-03-16 16:10:00,
2013-03-16 12:15:00,48.0,45.5,29.66,WNW,293,3.0,-999.0,91,0.00,,,0.06,Wunderground v.1.15,2013-03-16 16:15:00,
2013-03-16 12:20:00,48.0,45.5,29.66,WNW,293,3.0,-999.0,91,0.00,,,0.06,Wunderground v.1.15,2013-03-16 16:20:00,
2013-03-16 12:25:00,48.0,45.5,29.66,WNW,293,3.0,-999.0,91,0.00,,,0.06,Wunderground v.1.15,2013-03-16 16:25:00,
2013-03-16 12:30:00,48.0,45.5,29.66,WNW,293,3.0,-999.0,91,0.00,,,0.06,Wunderground v.1.15,2013-03-16 16:30:00,
2013-03-16 12:35:00,48.0,45.5,29.66,WNW,293,3.0,-999.0,91,0.00,,,0.06,Wunderground v.1.15,2013-03-16 16:35:00,
2013-03-16 12:40:00,48.0,45.5,29.66,WNW,293,3.0,-999.0,91,0.00,,,0.06,Wunderground v.1.15,2013-03-16 16:40:00,
2013-03-16 12:45:00,48.2,45.1,29.68,WNW,293,4.0,-999.0,89,0.00,,,0.06,Wunderground v.1.15,2013-03-16 16:45:00,
2013-03-16 12:50:00,48.2,45.1,29.68,WNW,293,4.0,-999.0,89,0.00,,,0.06,Wunderground v.1.15,2013-03-16 16:50:00,
2013-03-16 12:55:00,48.2,45.1,29.68,WNW,293,4.0,-999.0,89,0.00,,,0.06,Wunderground v.1.15,2013-03-16 16:55:00,
2013-03-16 13:00:00,48.2,45.1,29.68,WNW,293,4.0,-999.0,89,0.00,,,0.06,Wunderground v.1.15,2013-03-16 17:00:00,
2013-03-16 13:05:00,48.2,45.1,29.68,WNW,293,4.0,-999.0,89,0.00,,,0.06,Wunderground v.1.15,2013-03-16 17:05:00,
2013-03-16 13:10:00,48.2,45.1,29.68,WNW,293,4.0,-999.0,89,0.00,,,0.06,Wunderground v.1.15,2013-03-16 17:10:00,
2013-03-16 13:15:00,48.1,44.7,29.70,WNW,293,4.0,-999.0,88,0.00,,,0.06,Wunderground v.1.15,2013-03-16 17:15:00,
2013-03-16 13:20:00,48.1,44.7,29.70,WNW,293,4.0,-999.0,88,0.00,,,0.06,Wunderground v.1.15,2013-03-16 17:20:00,
2013-03-16 13:25:00,48.1,44.7,29.70,WNW,293,4.0,-999.0,88,0.00,,,0.06,Wunderground v.1.15,2013-03-16 17:25:00,
2013-03-16 13:30:00,48.1,44.7,29.70,WNW,293,4.0,-999.0,88,0.00,,,0.06,Wunderground v.1.15,2013-03-16 17:30:00,
2013-03-16 13:35:00,48.1,44.7,29.70,WNW,293,4.0,-999.0,88,0.00,,,0.06,Wunderground v.1.15,2013-03-16 17:35:00,
2013-03-16 13:40:00,48.1,44.7,29.70,WNW,293,4.0,-999.0,88,0.00,,,0.06,Wunderground v.1.15,2013-03-16 17:40:00,
2013-03-16 13:45:00,46.9,43.8,29.72,WNW,293,5.0,-999.0,89,0.00,,,0.06,Wunderground v.1.15,2013-03-16 17:45:00,
2013-03-16 13:50:00,46.9,43.8,29.72,WNW,293,5.0,-999.0,89,0.00,,,0.06,Wunderground v.1.15,2013-03-16 17:50:00,
2013-03-16 13:55:00,46.9,43.8,29.72,WNW,293,5.0,-999.0,89,0.00,,,0.06,Wunderground v.1.15,2013-03-16 17:55:00,
2013-03-16 14:00:00,46.9,43.8,29.72,WNW,293,5.0,-999.0,89,0.00,,,0.06,Wunderground v.1.15,2013-03-16 18:00:00,
2013-03-16 14:05:00,46.9,43.8,29.72,WNW,293,5.0,-999.0,89,0.00,,,0.06,Wunderground v.1.15,2013-03-16 18:05:00,
2013-03-16 14:10:00,46.9,43.8,29.72,WNW,293,5.0,-999.0,89,0.00,,,0.06,Wunderground v.1.15,2013-03-16 18:10:00,
2013-03-16 14:15:00,44.7,41.9,29.74,WNW,293,6.0,-999.0,90,0.00,,,0.06,Wunderground v.1.15,2013-03-16 18:15:00,
2013-03-16 14:20:00,45.9,42.8,29.73,NW,307,6.0,6.0,89,0.00,,,0.06,Wunderground v.1.15,2013-03-16 18:20:00,
2013-03-16 14:25:00,44.7,41.9,29.74,WNW,293,6.0,-999.0,90,0.00,,,0.06,Wunderground v.1.15,2013-03-16 18:25:00,
2013-03-16 14:30:00,44.7,41.9,29.74,WNW,288,7.0,7.0,90,0.00,,,0.06,Wunderground v.1.15,2013-03-16 18:30:00,
2013-03-16 14:35:00,43.9,41.4,29.74,NW,309,7.0,8.0,91,0.00,,,0.06,Wunderground v.1.15,2013-03-16 18:35:00,
2013-03-16 14:40:00,43.2,41.0,29.75,NNW,327,7.0,7.0,92,0.00,,,0.06,Wunderground v.1.15,2013-03-16 18:40:00,
2013-03-16 14:45:00,42.8,40.9,29.75,NNW,344,6.0,9.0,93,0.00,,,0.06,Wunderground v.1.15,2013-03-16 18:45:00,
2013-03-16 14:50:00,42.4,40.5,29.76,NW,317,6.0,6.0,93,0.00,,,0.06,Wunderground v.1.15,2013-03-16 18:50:00,
2013-03-16 14:55:00,41.7,40.1,29.76,WNW,293,6.0,-999.0,94,0.00,,,0.06,Wunderground v.1.15,2013-03-16 18:55:00,
2013-03-16 15:00:00,41.7,40.1,29.76,West,279,5.0,5.0,94,0.00,,,0.06,Wunderground v.1.15,2013-03-16 19:00:00,
2013-03-16 15:05:00,41.7,40.1,29.76,WNW,293,6.0,-999.0,94,0.00,,,0.06,Wunderground v.1.15,2013-03-16 19:05:00,
2013-03-16 15:10:00,40.8,39.2,29.76,WNW,302,6.0,6.0,94,0.00,,,0.06,Wunderground v.1.15,2013-03-16 19:10:00,
2013-03-16 15:15:00,39.8,38.5,29.78,WNW,293,6.0,-999.0,95,0.00,,,0.06,Wunderground v.1.15,2013-03-16 19:15:00,
2013-03-16 15:20:00,40.4,39.1,29.77,West,267,5.0,6.0,95,0.00,,,0.06,Wunderground v.1.15,2013-03-16 19:20:00,
2013-03-16 15:25:00,40.2,38.9,29.78,WSW,250,5.0,7.0,95,0.00,,,0.06,Wunderground v.1.15,2013-03-16 19:25:00,
2013-03-16 15:30:00,39.8,38.5,29.78,WNW,302,6.0,11.0,95,0.00,,,0.06,Wunderground v.1.15,2013-03-16 19:30:00,
2013-03-16 15:35:00,39.4,38.1,29.79,WNW,294,7.0,11.0,95,0.00,,,0.06,Wunderground v.1.15,2013-03-16 19:35:00,
2013-03-16 15:40:00,39.8,38.5,29.78,WNW,293,6.0,-999.0,95,0.00,,,0.06,Wunderground v.1.15,2013-03-16 19:40:00,
2013-03-16 15:45:00,38.5,37.2,29.80,NNW,327,6.0,6.0,95,0.00,,,0.06,Wunderground v.1.15,2013-03-16 19:45:00,
2013-03-16 15:50:00,37.7,36.4,29.81,NW,315,6.0,-999.0,95,0.00,,,0.06,Wunderground v.1.15,2013-03-16 19:50:00,
2013-03-16 15:55:00,38.2,36.9,29.81,WNW,284,5.0,7.0,95,0.00,,,0.06,Wunderground v.1.15,2013-03-16 19:55:00,
2013-03-16 16:00:00,37.7,36.4,29.81,NW,309,6.0,6.0,95,0.00,,,0.06,Wunderground v.1.15,2013-03-16 20:00:00,
2013-03-16 16:05:00,37.7,36.4,29.81,NW,315,6.0,-999.0,95,0.00,,,0.06,Wunderground v.1.15,2013-03-16 20:05:00,
2013-03-16 16:10:00,37.4,36.1,29.82,NW,319,5.0,11.0,95,0.00,,,0.06,Wunderground v.1.15,2013-03-16 20:10:00,
2013-03-16 16:15:00,37.2,35.9,29.82,WNW,286,6.0,11.0,95,0.00,,,0.06,Wunderground v.1.15,2013-03-16 20:15:00,
2013-03-16 16:20:00,36.5,35.2,29.83,WNW,293,5.0,-999.0,95,0.00,,,0.06,Wunderground v.1.15,2013-03-16 20:20:00,
2013-03-16 16:25:00,36.7,35.4,29.83,NNE,26,5.0,6.0,95,0.00,,,0.06,Wunderground v.1.15,2013-03-16 20:25:00,
2013-03-16 16:30:00,36.5,35.2,29.83,NW,306,5.0,5.0,95,0.00,,,0.06,Wunderground v.1.15,2013-03-16 20:30:00,
2013-03-16 16:35:00,36.2,34.9,29.84,North,5,5.0,6.0,95,0.00,,,0.06,Wunderground v.1.15,2013-03-16 20:35:00,
2013-03-16 16:40:00,35.9,34.6,29.84,WNW,302,7.0,10.0,95,0.00,,,0.06,Wunderground v.1.15,2013-03-16 20:40:00,
2013-03-16 16:45:00,35.8,34.8,29.84,NE,51,7.0,10.0,96,0.00,,,0.06,Wunderground v.1.15,2013-03-16 20:45:00,
2013-03-16 16:50:00,35.4,34.4,29.85,WNW,293,6.0,-999.0,96,0.00,,,0.06,Wunderground v.1.15,2013-03-16 20:50:00,
2013-03-16 16:55:00,35.5,34.5,29.84,NW,326,5.0,9.0,96,0.00,,,0.06,Wunderground v.1.15,2013-03-16 20:55:00,
2013-03-16 17:00:00,35.3,34.3,29.85,NW,314,5.0,8.0,96,0.00,,,0.06,Wunderground v.1.15,2013-03-16 21:00:00,
2013-03-16 17:05:00,35.3,34.3,29.85,NNE,16,5.0,8.0,96,0.00,,,0.06,Wunderground v.1.15,2013-03-16 21:05:00,
2013-03-16 17:10:00,35.3,34.3,29.85,North,5,4.0,4.0,96,0.00,,,0.06,Wunderground v.1.15,2013-03-16 21:10:00,
2013-03-16 17:15:00,35.4,33.8,29.86,NW,315,4.0,-999.0,94,0.00,,,0.06,Wunderground v.1.15,2013-03-16 21:15:00,
2013-03-16 17:20:00,35.3,34.0,29.85,WNW,292,5.0,9.0,95,0.00,,,0.06,Wunderground v.1.15,2013-03-16 21:20:00,
2013-03-16 17:25:00,35.4,33.8,29.86,NW,315,4.0,-999.0,94,0.00,,,0.06,Wunderground v.1.15,2013-03-16 21:25:00,
2013-03-16 17:30:00,35.4,33.8,29.86,NW,317,4.0,4.0,94,0.00,,,0.06,Wunderground v.1.15,2013-03-16 21:30:00,
2013-03-16 17:35:00,35.1,33.5,29.86,NNE,22,4.0,5.0,94,0.00,,,0.06,Wunderground v.1.15,2013-03-16 21:35:00,
2013-03-16 17:40:00,35.0,33.4,29.87,NW,318,5.0,8.0,94,0.00,,,0.06,Wunderground v.1.15,2013-03-16 21:40:00,
2013-03-16 17:45:00,34.6,32.8,29.89,NW,315,5.0,-999.0,93,0.00,,,0.06,Wunderground v.1.15,2013-03-16 21:45:00,
2013-03-16 17:50:00,34.8,33.0,29.88,NW,319,5.0,5.0,93,0.00,,,0.06,Wunderground v.1.15,2013-03-16 21:50:00,
2013-03-16 17:55:00,34.7,32.9,29.88,NNE,28,6.0,6.0,93,0.00,,,0.06,Wunderground v.1.15,2013-03-16 21:55:00,
2013-03-16 18:00:00,34.5,32.7,29.89,NNE,19,6.0,6.0,93,0.00,,,0.06,Wunderground v.1.15,2013-03-16 22:00:00,
2013-03-16 18:05:00,34.6,32.8,29.89,NW,315,5.0,-999.0,93,0.00,,,0.06,Wunderground v.1.15,2013-03-16 22:05:00,
2013-03-16 18:10:00,34.6,32.8,29.89,NW,315,5.0,-999.0,93,0.00,,,0.06,Wunderground v.1.15,2013-03-16 22:10:00,
2013-03-16 18:15:00,33.8,32.0,29.90,NW,315,5.0,-999.0,93,0.00,,,0.06,Wunderground v.1.15,2013-03-16 22:15:00,
2013-03-16 18:20:00,33.8,32.0,29.90,NW,315,5.0,-999.0,93,0.00,,,0.06,Wunderground v.1.15,2013-03-16 22:20:00,
2013-03-16 18:34:00,33.8,32.0,29.90,NW,315,5.0,-999.0,93,0.00,,,0.06,Wunderground v.1.15,2013-03-16 22:34:00,
2013-03-16 18:40:00,33.9,32.4,29.91,NW,325,3.0,4.0,94,0.00,,,0.06,Wunderground v.1.15,2013-03-16 22:40:00,
2013-03-16 18:50:00,33.6,31.8,29.92,WNW,290,5.0,5.0,93,0.00,,,0.06,Wunderground v.1.15,2013-03-16 22:50:00,
2013-03-16 18:55:00,33.5,32.0,29.93,North,360,4.0,6.0,94,0.00,,,0.06,Wunderground v.1.15,2013-03-16 22:55:00,
2013-03-16 19:00:00,33.5,32.0,29.93,NNE,15,4.0,4.0,94,0.00,,,0.06,Wunderground v.1.15,2013-03-16 23:00:00,
2013-03-16 19:10:00,33.0,31.5,29.93,West,279,5.0,7.0,94,0.00,,,0.06,Wunderground v.1.15,2013-03-16 23:10:00,
2013-03-16 19:15:00,32.8,31.3,29.93,NNW,336,5.0,7.0,94,0.00,,,0.06,Wunderground v.1.15,2013-03-16 23:15:00,
2013-03-16 19:25:00,32.7,31.2,29.94,WNW,300,3.0,4.0,94,0.00,,,0.06,Wunderground v.1.15,2013-03-16 23:25:00,
2013-03-16 19:30:00,32.7,31.2,29.94,NNE,28,4.0,4.0,94,0.00,,,0.06,Wunderground v.1.15,2013-03-16 23:30:00,
2013-03-16 19:35:00,32.6,30.8,29.94,NNW,327,5.0,5.0,93,0.00,,,0.06,Wunderground v.1.15,2013-03-16 23:35:00,
2013-03-16 19:40:00,32.5,30.7,29.95,NNW,338,5.0,5.0,93,0.00,,,0.06,Wunderground v.1.15,2013-03-16 23:40:00,
2013-03-16 19:45:00,32.5,31.0,29.95,West,273,4.0,5.0,94,0.00,,,0.06,Wunderground v.1.15,2013-03-16 23:45:00,
2013-03-16 19:50:00,32.4,30.9,29.95,NW,326,3.0,5.0,94,0.00,,,0.06,Wunderground v.1.15,2013-03-16 23:50:00,
2013-03-16 20:00:00,32.3,30.8,29.95,NNW,336,4.0,4.0,94,0.00,,,0.06,Wunderground v.1.15,2013-03-17 00:00:00,
2013-03-16 20:05:00,32.2,30.7,29.96,NNW,336,4.0,4.0,94,0.00,,,0.06,Wunderground v.1.15,2013-03-17 00:05:00,
2013-03-16 20:10:00,32.2,30.7,29.96,NNE,19,4.0,4.0,94,0.00,,,0.06,Wunderground v.1.15,2013-03-17 00:10:00,
2013-03-16 20:19:00,32.2,30.7,29.97,WNW,287,4.0,4.0,94,0.00,,,0.06,Wunderground v.1.15,2013-03-17 00:19:00,
2013-03-16 20:25:00,32.1,30.6,29.97,NNW,343,3.0,6.0,94,0.00,,,0.06,Wunderground v.1.15,2013-03-17 00:25:00,
2013-03-16 20:30:00,32.1,30.6,29.97,NNW,343,4.0,4.0,94,0.00,,,0.06,Wunderground v.1.15,2013-03-17 00:30:00,
2013-03-16 20:35:00,32.0,30.5,29.98,NW,323,4.0,4.0,94,0.00,,,0.06,Wunderground v.1.15,2013-03-17 00:35:00,
2013-03-16 20:40:00,31.9,30.4,29.98,North,349,3.0,3.0,94,0.00,,,0.06,Wunderground v.1.15,2013-03-17 00:40:00,
2013-03-16 20:50:00,31.9,30.4,29.98,NNW,338,3.0,7.0,94,0.00,,,0.06,Wunderground v.1.15,2013-03-17 00:50:00,
2013-03-16 20:55:00,31.8,30.0,29.99,NNE,28,4.0,7.0,93,0.00,,,0.06,Wunderground v.1.15,2013-03-17 00:55:00,
2013-03-16 21:00:00,31.7,29.9,29.99,NW,319,4.0,5.0,93,0.00,,,0.06,Wunderground v.1.15,2013-03-17 01:00:00,
2013-03-16 21:05:00,31.7,29.9,29.99,WNW,302,3.0,5.0,93,0.00,,,0.06,Wunderground v.1.15,2013-03-17 01:05:00,
2013-03-16 21:15:00,31.7,29.9,29.98,NW,325,2.0,2.0,93,0.00,,,0.06,Wunderground v.1.15,2013-03-17 01:15:00,
2013-03-16 21:25:00,31.7,29.9,29.98,NNE,12,2.0,2.0,93,0.00,,,0.06,Wunderground v.1.15,2013-03-17 01:25:00,
2013-03-16 21:30:00,31.5,29.7,29.98,NNW,331,3.0,5.0,93,0.00,,,0.06,Wunderground v.1.15,2013-03-17 01:30:00,
2013-03-16 21:35:00,31.5,29.4,29.98,NW,311,3.0,5.0,92,0.00,,,0.06,Wunderground v.1.15,2013-03-17 01:35:00,
2013-03-16 21:45:00,31.5,29.4,29.98,NE,50,2.0,4.0,92,0.00,,,0.06,Wunderground v.1.15,2013-03-17 01:45:00,
2013-03-16 21:50:00,31.5,29.4,29.99,NNW,346,2.0,3.0,92,0.00,,,0.06,Wunderground v.1.15,2013-03-17 01:50:00,
2013-03-16 21:55:00,31.5,29.4,29.99,NW,313,2.0,3.0,92,0.00,,,0.06,Wunderground v.1.15,2013-03-17 01:55:00,
2013-03-16 22:00:00,31.4,29.3,29.99,WNW,287,3.0,3.0,92,0.00,,,0.06,Wunderground v.1.15,2013-03-17 02:00:00,
2013-03-16 22:05:00,31.4,29.3,29.98,NE,45,3.0,-999.0,92,0.00,,,0.06,Wunderground v.1.15,2013-03-17 02:05:00,
2013-03-16 22:10:00,31.4,29.1,29.99,NNW,339,3.0,3.0,91,0.00,,,0.06,Wunderground v.1.15,2013-03-17 02:10:00,
2013-03-16 22:15:00,31.3,29.0,29.99,NNE,31,3.0,4.0,91,0.00,,,0.06,Wunderground v.1.15,2013-03-17 02:15:00,
2013-03-16 22:20:00,31.1,28.8,30.00,NW,315,3.0,-999.0,91,0.00,,,0.06,Wunderground v.1.15,2013-03-17 02:20:00,
2013-03-16 22:25:00,31.1,28.8,30.00,NW,315,3.0,-999.0,91,0.00,,,0.06,Wunderground v.1.15,2013-03-17 02:25:00,
2013-03-16 22:30:00,31.1,28.8,30.00,NW,321,3.0,4.0,91,0.00,,,0.06,Wunderground v.1.15,2013-03-17 02:30:00,
2013-03-16 22:35:00,31.1,28.8,30.00,WNW,298,2.0,4.0,91,0.00,,,0.06,Wunderground v.1.15,2013-03-17 02:35:00,
2013-03-16 22:40:00,31.2,28.9,30.00,North,11,2.0,2.0,91,0.00,,,0.06,Wunderground v.1.15,2013-03-17 02:40:00,
2013-03-16 22:45:00,31.1,28.8,30.01,NW,315,2.0,-999.0,91,0.00,,,0.06,Wunderground v.1.15,2013-03-17 02:45:00,
2013-03-16 22:50:00,31.2,28.9,30.01,NNE,30,2.0,2.0,91,0.00,,,0.06,Wunderground v.1.15,2013-03-17 02:50:00,
2013-03-16 22:55:00,31.1,28.8,30.01,NNW,344,2.0,3.0,91,0.00,,,0.06,Wunderground v.1.15,2013-03-17 02:55:00,
2013-03-16 23:00:00,31.1,28.8,30.01,NW,315,2.0,-999.0,91,0.00,,,0.06,Wunderground v.1.15,2013-03-17 03:00:00,
2013-03-16 23:05:00,31.0,28.7,30.01,NW,307,3.0,4.0,91,0.00,,,0.06,Wunderground v.1.15,2013-03-17 03:05:00,
2013-03-16 23:10:00,30.9,28.3,30.01,NE,47,4.0,6.0,90,0.00,,,0.06,Wunderground v.1.15,2013-03-17 03:10:00,
2013-03-16 23:15:00,30.9,28.3,30.01,ENE,78,4.0,7.0,90,0.00,,,0.06,Wunderground v.1.15,2013-03-17 03:15:00,
2013-03-16 23:20:00,31.0,28.4,30.02,NE,45,3.0,-999.0,90,0.00,,,0.06,Wunderground v.1.15,2013-03-17 03:20:00,
2013-03-16 23:25:00,30.9,28.3,30.02,NNW,344,3.0,5.0,90,0.00,,,0.06,Wunderground v.1.15,2013-03-17 03:25:00,
2013-03-16 23:30:00,31.0,28.4,30.02,WNW,300,2.0,2.0,90,0.00,,,0.06,Wunderground v.1.15,2013-03-17 03:30:00,
2013-03-16 23:35:00,31.0,28.4,30.02,NE,45,3.0,-999.0,90,0.00,,,0.06,Wunderground v.1.15,2013-03-17 03:35:00,
2013-03-16 23:40:00,31.1,28.8,30.02,NNE,12,2.0,2.0,91,0.00,,,0.06,Wunderground v.1.15,2013-03-17 03:40:00,
2013-03-16 23:45:00,31.0,28.4,30.03,NNE,23,2.0,-999.0,90,0.00,,,0.06,Wunderground v.1.15,2013-03-17 03:45:00,
2013-03-16 23:50:00,31.1,28.8,30.03,North,351,1.0,1.0,91,0.00,,,0.06,Wunderground v.1.15,2013-03-17 03:50:00,
2013-03-16 23:55:00,31.0,28.4,30.03,NW,323,2.0,4.0,90,0.00,,,0.06,Wunderground v.1.15,2013-03-17 03:55:00,